Date String (YYYY-MM-DD hh:mm:ss) UTC,Instrument flags,Ambient pressure (hPa),Sample flow (lpm),Bypass flow (lpm),Sample temperature (°C),Ambient temperature (°C),ASC tube jacket temperature (°C),LED temperature (°C),Box temperature (°C),Sample RH (%),Span deviation,Mass concentration (μg/m³),Mass concentration (μg/m³),Mass concentration (μg/m³)
DateTimeUTC,F1_M11,P_M11,Q1_M11,Q2_M11,T1_M11,T2_M11,T3_M11,T4_M11,T5_M11,U1_M11,ZSPAN_M11,X0_M11,X2_M11,X1_M11
2022-11-27 14:00:00,,0822.2,4.99,0.00,24.1,22.7,00.0,33.1,26.0,18.8,0000.0,0008.88,0005.42,0005.05
2022-11-27 14:01:00,,0822.2,5.01,0.00,24.1,22.7,00.0,33.1,26.0,18.9,0000.0,0008.65,0005.38,0005.05
2022-11-27 14:02:00,,0822.2,5.00,0.00,24.1,22.6,00.0,33.1,26.0,18.9,0000.0,0008.34,0005.38,0005.07
2022-11-27 14:03:00,,0822.1,4.99,0.00,24.1,22.6,00.0,33.1,25.9,18.9,0000.0,0008.33,0005.39,0005.09
2022-11-27 14:04:00,,0822.1,5.01,0.00,24.1,22.5,00.0,33.1,25.9,18.9,0000.0,0008.50,0005.44,0005.13
2022-11-27 14:05:00,,0822.1,5.01,0.00,24.0,22.4,00.0,33.1,25.9,19.0,0000.0,0008.54,0005.49,0005.18
2022-11-27 14:06:00,,0822.1,4.98,0.00,24.0,22.3,00.0,33.1,25.9,19.0,0000.0,0008.51,0005.51,0005.22
2022-11-27 14:07:00,,0822.1,5.01,0.00,24.0,22.3,00.0,33.0,25.9,19.0,0000.0,0008.29,0005.56,0005.26
2022-11-27 14:08:00,,0822.0,4.99,0.00,24.0,22.3,00.0,33.0,25.9,19.0,0000.0,0008.46,0005.61,0005.30
2022-11-27 14:09:00,,0822.0,5.00,0.00,24.0,22.4,00.0,33.0,25.8,19.0,0000.0,0008.94,0005.63,0005.35
2022-11-27 14:10:00,,0822.0,5.01,0.00,24.0,22.4,00.0,33.0,25.8,19.0,0000.0,0009.14,0005.69,0005.41
2022-11-27 14:11:00,,0822.1,4.99,0.00,24.0,22.4,00.0,33.0,25.8,19.0,0000.0,0009.65,0005.80,0005.46
2022-11-27 14:12:00,,0822.1,5.02,0.00,24.0,22.4,00.0,33.0,25.8,19.1,0000.0,0009.80,0005.86,0005.50
2022-11-27 14:13:00,,0822.1,4.98,0.00,23.9,22.4,00.0,32.9,25.7,19.1,0000.0,0009.79,0005.88,0005.53
2022-11-27 14:14:00,,0822.1,5.00,0.00,23.9,22.5,00.0,32.9,25.8,19.4,0000.0,0009.82,0005.91,0005.55
2022-11-27 14:15:00,,0822.1,5.00,0.00,23.9,22.5,00.0,32.9,25.7,19.8,0000.0,0009.76,0005.92,0005.56
2022-11-27 14:16:00,,0822.1,4.99,0.00,23.9,22.5,00.0,32.9,25.7,19.3,0000.0,0009.86,0005.94,0005.56
2022-11-27 14:17:00,,0822.1,5.01,0.00,23.9,22.5,00.0,32.9,25.8,19.2,0000.0,0010.20,0005.98,0005.58
2022-11-27 14:18:00,,0822.1,4.99,0.00,23.9,22.6,00.0,32.9,25.7,19.2,0000.0,0010.49,0005.95,0005.57
2022-11-27 14:19:00,,0822.1,5.01,0.00,23.9,22.6,00.0,32.9,25.8,19.0,0000.0,0010.42,0005.94,0005.56
2022-11-27 14:20:00,,0822.1,5.00,0.00,23.9,22.6,00.0,32.9,25.9,18.9,0000.0,0009.90,0005.92,0005.52
2022-11-27 14:21:00,,0822.0,5.00,0.00,24.0,22.6,00.0,32.9,25.9,19.1,0000.0,0009.74,0005.90,0005.50
2022-11-27 14:22:00,,0822.0,5.01,0.00,24.0,22.6,00.0,32.9,25.9,19.1,0000.0,0009.34,0005.85,0005.48
2022-11-27 14:23:00,,0822.1,4.99,0.00,24.0,22.6,00.0,32.9,25.9,19.1,0000.0,0009.26,0005.83,0005.47
2022-11-27 14:24:00,,0822.0,5.02,0.00,24.0,22.6,00.0,32.9,25.9,19.1,0000.0,0009.16,0005.82,0005.46
2022-11-27 14:25:00,,0822.0,4.98,0.00,24.0,22.6,00.0,32.9,25.9,19.1,0000.0,0009.14,0005.81,0005.45
2022-11-27 14:26:00,,0822.0,5.01,0.00,23.9,22.5,00.0,32.9,25.9,19.1,0000.0,0009.08,0005.77,0005.44
2022-11-27 14:27:00,,0822.0,4.99,0.00,23.9,22.5,00.0,32.9,25.8,19.1,0000.0,0009.65,0005.76,0005.43
2022-11-27 14:28:00,,0822.0,5.00,0.00,23.9,22.4,00.0,32.9,25.8,19.1,0000.0,0009.50,0005.72,0005.40
2022-11-27 14:29:00,,0822.0,5.00,0.00,23.9,22.4,00.0,32.9,25.7,19.1,0000.0,0008.98,0005.70,0005.38
2022-11-27 14:30:00,,0822.0,5.00,0.00,23.9,22.3,00.0,32.9,25.7,19.1,0000.0,0009.21,0005.69,0005.36
2022-11-27 14:31:00,,0822.1,5.00,0.00,23.9,22.3,00.0,32.9,25.7,19.1,0000.0,0009.75,0005.69,0005.37
2022-11-27 14:32:00,,0822.1,5.01,0.00,23.9,22.3,00.0,32.9,25.6,19.1,0000.0,0009.77,0005.66,0005.34
2022-11-27 14:33:00,,0822.1,4.99,0.00,23.9,22.3,00.0,32.9,25.6,19.1,0000.0,0009.65,0005.60,0005.33
2022-11-27 14:34:00,,0822.0,5.01,0.00,23.8,22.1,00.0,32.9,25.6,18.9,0000.0,0009.59,0005.56,0005.30
2022-11-27 14:35:00,,0821.9,4.99,0.00,23.8,22.1,00.0,32.8,25.6,18.8,0000.0,0009.71,0005.52,0005.26
2022-11-27 14:36:00,,0822.0,5.01,0.00,23.8,22.1,00.0,32.8,25.6,18.7,0000.0,0010.38,0005.48,0005.23
2022-11-27 14:37:00,,0821.8,4.99,0.00,23.8,22.0,00.0,32.8,25.5,18.7,0000.0,0010.54,0005.45,0005.20
2022-11-27 14:38:00,,0821.8,5.00,0.00,23.7,22.0,00.0,32.8,25.5,18.7,0000.0,0009.80,0005.41,0005.17
2022-11-27 14:39:00,,0821.8,5.00,0.00,23.7,22.0,00.0,32.8,25.5,18.7,0000.0,0009.67,0005.36,0005.13
2022-11-27 14:40:00,,0821.8,5.00,0.00,23.7,22.0,00.0,32.8,25.5,18.8,0000.0,0009.90,0005.35,0005.11
2022-11-27 14:41:00,,0821.8,5.00,0.00,23.7,22.0,00.0,32.7,25.5,18.8,0000.0,0010.98,0005.32,0005.08
2022-11-27 14:42:00,,0821.8,5.01,0.00,23.7,21.9,00.0,32.7,25.5,18.9,0000.0,0010.62,0005.30,0005.07
2022-11-27 14:43:00,,0821.7,4.99,0.00,23.7,21.9,00.0,32.7,25.5,19.2,0000.0,0010.56,0005.31,0005.08
2022-11-27 14:44:00,,0821.8,5.01,0.00,23.6,21.8,00.0,32.7,25.5,19.4,0000.0,0010.61,0005.35,0005.10
2022-11-27 14:45:00,,0821.8,4.98,0.00,23.6,21.7,00.0,32.7,25.4,19.4,0000.0,0010.67,0005.38,0005.12
2022-11-27 14:46:00,,0821.8,5.00,0.00,23.6,21.7,00.0,32.7,25.4,19.5,0000.0,0010.55,0005.40,0005.14
2022-11-27 14:47:00,,0821.8,5.01,0.00,23.5,21.6,00.0,32.6,25.3,19.5,0000.0,0009.91,0005.45,0005.16
2022-11-27 14:48:00,,0821.8,5.00,0.00,23.5,21.7,00.0,32.6,25.3,19.5,0000.0,0009.73,0005.48,0005.18
2022-11-27 14:49:00,,0821.8,5.00,0.00,23.5,21.7,00.0,32.6,25.3,19.5,0000.0,0009.86,0005.52,0005.19
2022-11-27 14:50:00,,0821.8,4.99,0.00,23.5,21.8,00.0,32.6,25.3,19.5,0000.0,0009.85,0005.54,0005.20
2022-11-27 14:51:00,,0821.8,5.01,0.00,23.5,21.9,00.0,32.6,25.3,19.5,0000.0,0009.70,0005.54,0005.22
2022-11-27 14:52:00,,0821.8,5.00,0.00,23.5,22.0,00.0,32.5,25.4,19.5,0000.0,0008.33,0005.55,0005.24
2022-11-27 14:53:00,,0821.9,4.99,0.00,23.5,22.0,00.0,32.5,25.4,19.6,0000.0,0007.95,0005.55,0005.25
2022-11-27 14:54:00,,0821.8,5.01,0.00,23.5,22.1,00.0,32.5,25.4,19.6,0000.0,0007.92,0005.55,0005.26
2022-11-27 14:55:00,,0821.8,4.99,0.00,23.5,22.0,00.0,32.5,25.4,19.7,0000.0,0007.90,0005.55,0005.27
2022-11-27 14:56:00,,0821.8,5.01,0.00,23.5,22.1,00.0,32.5,25.3,19.7,0000.0,0007.88,0005.58,0005.29
2022-11-27 14:57:00,,0821.7,4.99,0.00,23.5,22.1,00.0,32.5,25.3,19.7,0000.0,0008.05,0005.64,0005.31
2022-11-27 14:58:00,,0821.8,5.02,0.00,23.5,22.1,00.0,32.5,25.3,19.8,0000.0,0008.14,0005.70,0005.35
2022-11-27 14:59:00,,0821.8,4.98,0.00,23.5,22.1,00.0,32.5,25.4,19.8,0000.0,0008.13,0005.72,0005.37
